Regional Weather Roundup
Issued by NWS

Home | Current Version | Previous Version | Text Only | Print | Product List | Glossary Off
Versions: 1 2 3 4 5 6 7 8 9 10 11 12 13 14 15 16 17 18 19 20 21 22 23 24 25 26 27 28 29 30 31 32 33 34 35 36 37 38 39 40 41 42 43 44 45 46 47 48 49 50

000
ASUS43 KDMX 292307
RWRIA

WEATHER ROUNDUP FOR IOWA
NATIONAL WEATHER SERVICE DES MOINES IA
600 PM CDT MON JUN 29 2015

NOTE: "FAIR" INDICATES FEW OR NO CLOUDS BELOW 12,000 FEET WITH NO
SIGNIFICANT WEATHER AND/OR OBSTRUCTIONS TO VISIBILITY.

* - THESE STATIONS ARE NOT NWS STATIONS...THUS NOT UNDER NWS
QUALITY CONTROL.  THEY ALSO DO NOT REPORT WEATHER SUCH
AS PRECIPITATION OR FOG.

IAZ001>003-012>014-020>022-031>034-043>046-300000-
   NORTHWEST IOWA

CITY           SKY/WX    TMP DP  RH WIND       PRES   REMARKS
CARROLL *      SUNNY     81  63  54 NW9       29.89S HX  82
CHEROKEE *     SUNNY     79  63  57 NW6       29.89F HX  80
DENISON *      SUNNY     79  64  61 W7        29.89F HX  81
LE MARS *      SUNNY     81  63  54 NW10      29.91F HX  82
ORANGE CITY *  SUNNY     77  61  57 NW10      29.92S
SHELDON *      SUNNY     79  61  53 NW9       29.89S HX  80
SIOUX CITY     SUNNY     83  59  44 NW9       29.91R HX  83
SPENCER        SUNNY     80  61  52 NW9       29.89S HX  81
STORM LAKE *   SUNNY     79  64  61 NW7       29.91S HX  81
$$

IAZ055>058-069>071-079>083-090>094-300000-
   SOUTHWEST IOWA

CITY           SKY/WX    TMP DP  RH WIND       PRES   REMARKS
ATLANTIC *     SUNNY     81  61  50 N9        29.91R HX  81
AUDUBON *      SUNNY     81  63  54 NW3       29.92S HX  82
CLARINDA *     SUNNY     84  68  58 NW8       29.91F HX  87
COUNCIL BLFS * SUNNY     81  63  54 N7G13     29.92S HX  82
CRESTON *      MOSUNNY   79  63  57 NW9       29.90F HX  80
HARLAN  *      SUNNY     79  64  61 N7        29.94F HX  81
LAMONI         SUNNY     81  66  60 N6        29.89F HX  83
RED OAK *      SUNNY     82  63  51 NW9       29.91S HX  83
SHENANDOAH *   SUNNY     84  63  48 N9        29.91S HX  85
$$

IAZ047>049-059>061-072>074-084-300000-
   CENTRAL IOWA

CITY           SKY/WX    TMP DP  RH WIND       PRES   REMARKS
AMES           SUNNY     79  64  60 NW9       29.86S HX  81
ANKENY *       SUNNY     79  64  61 NW9       29.86S HX  81
CHARITON *     SUNNY     79  66  65 NW7       29.87F HX  81
DES MOINES     CLOUDY    81  62  52 NW12      29.86S HX  82
GRINNELL*      SUNNY     79  64  61 W12       29.85F HX  81
KNOXVILLE *    SUNNY     79  64  61 W7        29.85S HX  81
MARSHALLTOWN   SUNNY     78  66  66 W9        29.83F HX  80
PELLA *        SUNNY     79  68  69 NW8       29.86S HX  81
PERRY *          N/A     81  63  54 NW8       29.88S HX  82
$$

IAZ004>006-015-016-023>025-035-036-300000-
   NORTH CENTRAL IOWA

CITY           SKY/WX    TMP DP  RH WIND       PRES   REMARKS
ALGONA *         N/A    N/A N/A N/A NW8       29.87S
CLARION *      SUNNY     79  63  57 NW9       29.86R HX  80
ESTHERVILLE    SUNNY     78  62  57 W8        29.87S HX  80
FORT DODGE *   SUNNY     79  63  57 W7        29.88S HX  80
MASON CITY     SUNNY     79  64  60 NW12      29.86R HX  81
FOREST CITY *  SUNNY     77  63  61 NW13      29.85S
IOWA FALLS *     N/A     79  63  57 W10       29.86S HX  80
$$

IAZ007>011-017>019-026>030-037>042-050>054-066-300000-
   NORTHEAST IOWA

CITY           SKY/WX    TMP DP  RH WIND       PRES   REMARKS
CEDAR RAPIDS   MOSUNNY   80  65  59 NW14      29.80F HX  82
CHARLES CITY * SUNNY     77  66  69 NW12G18   29.83S
CLINTON *      MOSUNNY   79  64  61 W12       29.82F HX  81
DECORAH *        N/A    N/A N/A N/A MISG        N/A
DUBUQUE        MOSUNNY   78  64  61 NW8       29.81S HX  80
MONTICELLO *   MOSUNNY   75 -27   1 W6        29.80R
OELWEIN *      MOSUNNY   79  64  61 NW9G17    29.83R HX  81
WATERLOO       SUNNY     80  63  55 NW10      29.80S HX  81
$$

IAZ064-065-067-068-078-300000-
   EAST CENTRAL IOWA

CITY           SKY/WX    TMP DP  RH WIND       PRES   REMARKS
DAVENPORT      MOSUNNY   78  66  66 N6        29.80F HX  80
IOWA CITY      SUNNY     81  64  56 W9        29.81F HX  82
MT. PLEASANT * SUNNY     81  61  50 W7        29.83R HX  81
MUSCATINE *    SUNNY     82  64  54 W12       29.81S HX  84
QUAD CITIES    MOSUNNY   80  64  58 W8        29.79F HX  82
$$

IAZ062-063-075>077-085>089-095>099-300000-
   SOUTHEAST IOWA

CITY           SKY/WX    TMP DP  RH WIND       PRES   REMARKS
BURLINGTON     PTSUNNY   75  69  81 CALM      29.83S
FAIRFIELD *    SUNNY     81  66  61 NW8G15    29.84R HX  83
FORT MADISON * MOSUNNY   81  66  61 W9G18     29.84R HX  83
KEOKUK *       SUNNY     81  70  69 W7        29.83R HX  84
OSKALOOSA *      N/A     79  66  65 NW8       29.85R HX  81
CENTERVILLE *  SUNNY     79  66  65 NW7       29.88F HX  81
OTTUMWA        SUNNY     79  67  66 NW8       29.83S HX  81
WASHINGTON *   SUNNY     77  66  69 NW16G24   29.85R
$$

ABBREVIATIONS USED IN REMARKS
   TC - TEMPERATURES IN CELSIUS
  WCI - WIND CHILL INDEX
   HX - HEAT INDEX
  VSB - VISIBILITY
$$




USA.gov is the U.S. government's official web portal to all federal, state and local government web resources and services.